| time (UTC) | temp F | wind direction | speed MPH | gust MPH | rain 1hr in | rain 24hr in | rain mn in | humidity % | barometer mb |
| 20260506164539 | 52 | 27 | 0.0 | 2.0 | 0.00 | 0.04 | 0.00 | 44 | 1014.0 |
| 20260506163006 | 51 | 345 | 0.0 | 0.0 | 0.00 | 0.04 | 0.00 | 46 | 1014.0 |
| 20260506161540 | 50 | 63 | 0.0 | 1.0 | 0.00 | 0.04 | 0.00 | 48 | 1014.2 |
| 20260506154530 | 50 | 24 | 0.0 | 4.0 | 0.00 | 0.04 | 0.00 | 52 | 1014.0 |
| 20260506153049 | 50 | 37 | 0.0 | 6.0 | 0.00 | 0.04 | 0.00 | 49 | 1013.7 |
| 20260506151512 | 49 | 39 | 0.0 | 7.0 | 0.00 | 0.04 | 0.00 | 48 | 1013.9 |
| 20260506150040 | 49 | 28 | 0.0 | 7.0 | 0.00 | 0.04 | 0.00 | 50 | 1013.6 |
| 20260506144502 | 50 | 30 | 0.0 | 4.0 | 0.00 | 0.04 | 0.00 | 48 | 1013.5 |
| 20260506143026 | 49 | 15 | 0.0 | 0.0 | 0.00 | 0.04 | 0.00 | 52 | 1013.3 |
| 20260506141556 | 48 | 23 | 0.0 | 4.0 | 0.00 | 0.04 | 0.00 | 55 | 1013.3 |
| 20260506140015 | 47 | 62 | 0.0 | 1.0 | 0.00 | 0.04 | 0.00 | 54 | 1013.0 |
| 20260506134543 | 47 | 334 | 0.0 | 0.0 | 0.00 | 0.04 | 0.00 | 54 | 1013.0 |
| 20260506133006 | 46 | 7 | 0.0 | 1.0 | 0.00 | 0.04 | 0.00 | 60 | 1012.9 |
| 20260506131534 | 46 | 338 | 0.0 | 0.0 | 0.00 | 0.04 | 0.00 | 61 | 1012.6 |
| 20260506130057 | 44 | 48 | 0.0 | 0.0 | 0.00 | 0.04 | 0.00 | 64 | 1012.6 |
| 20260506124522 | 44 | 19 | 0.0 | 0.0 | 0.00 | 0.04 | 0.00 | 65 | 1012.6 |
| 20260506123049 | 43 | 38 | 0.0 | 0.0 | 0.00 | 0.04 | 0.00 | 66 | 1012.6 |
| 20260506121514 | 43 | 32 | 0.0 | 0.0 | 0.00 | 0.04 | 0.00 | 69 | 1012.3 |
| 20260506120047 | 43 | 56 | 0.0 | 0.0 | 0.00 | 0.04 | 0.00 | 71 | 1012.1 |
| 20260506114507 | 42 | 54 | 0.0 | 0.0 | 0.00 | 0.04 | 0.00 | 74 | 1011.7 |
| 20260506113034 | 41 | 44 | 0.0 | 0.0 | 0.00 | 0.04 | 0.00 | 76 | 1011.3 |
| 20260506111600 | 40 | 29 | 0.0 | 0.0 | 0.00 | 0.04 | 0.00 | 79 | 1011.2 |
| 20260506110027 | 40 | 29 | 0.0 | 0.0 | 0.00 | 0.04 | 0.00 | 78 | 1011.1 |
| 20260506104551 | 41 | 29 | 0.0 | 0.0 | 0.00 | 0.04 | 0.00 | 77 | 1010.9 |
| 20260506103020 | 41 | 28 | 0.0 | 0.0 | 0.00 | 0.04 | 0.00 | 75 | 1010.8 |
| 20260506101540 | 42 | 1 | 0.0 | 0.0 | 0.00 | 0.04 | 0.00 | 74 | 1010.6 |
| 20260506100005 | 43 | 64 | 0.0 | 0.0 | 0.00 | 0.04 | 0.00 | 71 | 1010.5 |
| 20260506094531 | 43 | 60 | 0.0 | 0.0 | 0.00 | 0.04 | 0.00 | 72 | 1010.3 |
| 20260506093113 | 44 | 16 | 0.0 | 0.0 | 0.00 | 0.04 | 0.00 | 72 | 1010.4 |
| 20260506091529 | 44 | 43 | 0.0 | 0.0 | 0.00 | 0.04 | 0.00 | 70 | 1010.2 |
| 20260506090106 | 44 | 328 | 0.0 | 0.0 | 0.00 | 0.04 | 0.00 | 70 | 1010.0 |
| 20260506084526 | 44 | 13 | 0.0 | 0.0 | 0.00 | 0.04 | 0.00 | 69 | 1009.9 |
| 20260506083056 | 44 | 325 | 0.0 | 0.0 | 0.00 | 0.04 | 0.00 | 71 | 1009.7 |
| 20260506081523 | 44 | 47 | 0.0 | 0.0 | 0.00 | 0.04 | 0.00 | 75 | 1009.4 |
| 20260506073049 | 44 | 91 | 0.0 | 0.0 | 0.00 | 0.04 | 0.00 | 83 | 1009.5 |
| 20260506071513 | 43 | 94 | 0.0 | 0.0 | 0.00 | 0.04 | 0.00 | 86 | 1009.4 |
| 20260506061603 | 43 | 94 | 0.0 | 0.0 | 0.00 | 0.04 | 0.00 | 92 | 1009.6 |
| 20260506044538 | 44 | 75 | 0.0 | 0.0 | 0.00 | 0.13 | 0.00 | 93 | 1009.4 |
| 20260506043003 | 44 | 75 | 0.0 | 0.0 | 0.00 | 0.13 | 0.00 | 92 | 1009.3 |
| 20260506041532 | 44 | 75 | 0.0 | 0.0 | 0.00 | 0.13 | 0.00 | 92 | 1009.4 |
| 20260506034527 | 44 | 75 | 0.0 | 0.0 | 0.00 | 0.30 | 0.13 | 93 | 1009.5 |
| 20260506033057 | 44 | 75 | 0.0 | 0.0 | 0.00 | 0.30 | 0.13 | 93 | 1009.2 |
| 20260506031521 | 44 | 75 | 0.0 | 0.0 | 0.00 | 0.30 | 0.13 | 93 | 1009.5 |
| 20260506030045 | 44 | 75 | 0.0 | 0.0 | 0.00 | 0.37 | 0.13 | 93 | 1009.5 |
| 20260506024513 | 44 | 75 | 0.0 | 0.0 | 0.00 | 0.37 | 0.13 | 93 | 1009.4 |
| 20260506023051 | 43 | 75 | 0.0 | 0.0 | 0.00 | 0.37 | 0.13 | 93 | 1009.3 |
| 20260506021506 | 43 | 75 | 0.0 | 0.0 | 0.00 | 0.37 | 0.13 | 93 | 1009.1 |
| 20260506020105 | 43 | 75 | 0.0 | 0.0 | 0.00 | 0.37 | 0.13 | 92 | 1008.9 |
| 20260506014600 | 43 | 75 | 0.0 | 0.0 | 0.00 | 0.37 | 0.13 | 92 | 1008.8 |
| 20260506013025 | 43 | 75 | 0.0 | 0.0 | 0.00 | 0.37 | 0.13 | 91 | 1008.6 |
| 20260506011558 | 43 | 75 | 0.0 | 0.0 | 0.01 | 0.37 | 0.13 | 91 | 1008.5 |
| 20260506010025 | 43 | 75 | 0.0 | 0.0 | 0.01 | 0.37 | 0.13 | 90 | 1008.6 |
| 20260506004553 | 43 | 75 | 0.0 | 0.0 | 0.02 | 0.37 | 0.13 | 90 | 1008.5 |
| 20260506003020 | 43 | 75 | 0.0 | 0.0 | 0.03 | 0.37 | 0.13 | 87 | 1008.5 |
| 20260506001554 | 43 | 75 | 0.0 | 0.0 | 0.03 | 0.36 | 0.12 | 85 | 1008.3 |
| 20260506000005 | 44 | 75 | 0.0 | 0.0 | 0.03 | 0.36 | 0.12 | 80 | 1008.5 |
| 20260505234534 | 45 | 75 | 0.0 | 0.0 | 0.02 | 0.35 | 0.11 | 71 | 1008.6 |
| 20260505233056 | 47 | 32 | 0.0 | 0.0 | 0.01 | 0.34 | 0.10 | 62 | 1008.6 |
| 20260505231528 | 49 | 55 | 0.0 | 0.0 | 0.00 | 0.33 | 0.09 | 53 | 1008.5 |
| 20260505230051 | 49 | 43 | 0.0 | 2.0 | 0.00 | 0.33 | 0.09 | 56 | 1008.3 |
| 20260505224517 | 49 | 328 | 0.0 | 0.0 | 0.00 | 0.33 | 0.09 | 55 | 1008.2 |
| 20260505223044 | 50 | 51 | 0.0 | 0.0 | 0.00 | 0.33 | 0.09 | 57 | 1008.2 |
| 20260505221509 | 51 | 6 | 0.0 | 0.0 | 0.00 | 0.33 | 0.09 | 62 | 1008.0 |
| 20260505220039 | 51 | 39 | 0.0 | 0.0 | 0.00 | 0.33 | 0.09 | 64 | 1007.8 |
| 20260505214505 | 52 | 12 | 0.0 | 0.0 | 0.00 | 0.33 | 0.09 | 66 | 1007.9 |
| 20260505213036 | 52 | 93 | 0.0 | 0.0 | 0.00 | 0.33 | 0.09 | 65 | 1007.7 |
| 20260505211506 | 52 | 10 | 0.0 | 0.0 | 0.00 | 0.33 | 0.09 | 66 | 1007.5 |
| 20260505210042 | 52 | 56 | 0.0 | 0.0 | 0.00 | 0.33 | 0.09 | 66 | 1007.4 |
| 20260505204502 | 53 | 25 | 0.0 | 0.0 | 0.00 | 0.33 | 0.09 | 65 | 1007.6 |
| 20260505203031 | 54 | 70 | 0.0 | 3.0 | 0.00 | 0.33 | 0.09 | 66 | 1007.6 |
| 20260505201559 | 54 | 68 | 0.0 | 1.0 | 0.00 | 0.33 | 0.09 | 66 | 1007.8 |
| 20260505200023 | 52 | 72 | 0.0 | 0.0 | 0.00 | 0.33 | 0.09 | 69 | 1007.8 |
| 20260505194550 | 52 | 85 | 0.0 | 0.0 | 0.00 | 0.33 | 0.09 | 70 | 1008.1 |
| 20260505193014 | 52 | 222 | 0.0 | 0.0 | 0.00 | 0.33 | 0.09 | 67 | 1008.2 |
| 20260505191544 | 53 | 79 | 0.0 | 0.0 | 0.00 | 0.33 | 0.09 | 67 | 1008.2 |
| 20260505190011 | 53 | 340 | 0.0 | 0.0 | 0.00 | 0.33 | 0.09 | 72 | 1008.1 |
| 20260505184542 | 53 | 332 | 0.0 | 1.0 | 0.00 | 0.33 | 0.09 | 71 | 1008.1 |
| 20260505183100 | 52 | 44 | 0.0 | 0.0 | 0.00 | 0.33 | 0.09 | 72 | 1008.0 |
| 20260505181527 | 51 | 56 | 0.0 | 2.0 | 0.00 | 0.33 | 0.09 | 73 | 1008.3 |
| 20260505180104 | 51 | 91 | 0.0 | 0.0 | 0.00 | 0.33 | 0.09 | 74 | 1008.2 |
| 20260505174532 | 50 | 236 | 0.0 | 0.0 | 0.00 | 0.33 | 0.09 | 76 | 1008.2 |
| 20260505173045 | 49 | 276 | 0.0 | 1.0 | 0.00 | 0.33 | 0.09 | 76 | 1008.3 |
| 20260505171517 | 49 | 117 | 0.0 | 0.0 | 0.00 | 0.33 | 0.09 | 78 | 1008.2 |
| 20260505170041 | 49 | 137 | 0.0 | 0.0 | 0.00 | 0.33 | 0.09 | 78 | 1007.8 |